Location: Sinnemahoning State Park
(41.4031°N, 78.0230°W)
Time: 06:53:23
(UTC-05:00)

Daily predictions for brighter satellites

Satellite Brightness Start Highest point End
(mag) Time Altitude Azimuth Time Altitude Azimuth Time Altitude Azimuth
SL-8 Rocket 4.0 17:03:23 10° N 17:09:34 74° E 17:15:43 10° SSE
Cosmos 1238 Rocket 2.5 17:08:25 10° SSE 17:11:12 41° E 17:14:11 10° NNE
Tiangong 1 1.9 17:09:03 10° SW 17:11:57 40° SSE 17:14:49 10° E
Meteor 1-18 Rocket 4.4 17:06:34 10° S 17:12:02 53° E 17:17:38 10° NNE
Okean 1 4.0 17:10:15 10° SSE 17:13:55 34° E 17:17:38 10° NNE
NOSS 3-3 (A) 4.1 17:08:34 10° SSW 17:14:38 65° ESE 17:21:11 10° NE
NOSS 3-3 (C) 4.1 17:08:40 10° SSW 17:14:44 65° ESE 17:21:17 10° NE
Cosmos 1536 4.4 17:13:01 10° NNW 17:16:51 40° W 17:20:39 10° SSW
Cosmos 2278 Rocket 2.2 17:14:47 10° SSW 17:20:23 69° ESE 17:26:01 10° NNE
CRYOSAT 2 4.4 17:16:10 10° N 17:21:05 70° E 17:25:57 10° S
Cosmos 1346 Rocket 3.7 17:18:58 10° SSE 17:22:20 28° E 17:25:42 10° NNE
Cosmos 2366 rocket 4.0 17:16:13 10° N 17:22:34 68° E 17:28:48 10° SSE
AQUARIUS 4.3 17:18:20 10° SSE 17:22:42 53° ENE 17:27:05 10° N
Cosmos 1959 Rocket 4.5 17:16:46 10° N 17:22:59 78° E 17:29:15 10° S
ATLAS 2AS CENTAUR R/B 3.3 17:15:06 10° NW 17:23:11 79° WSW 17:30:41 10° SSE
CZ-2C R/B 2.5 17:19:28 10° SSE 17:24:23 59° ENE 17:29:28 10° N
Cosmos 494 Rocket 4.0 17:22:14 10° NNW 17:27:31 90° ESE 17:32:46 10° SSE
Cosmos 2218 Rocket 4.0 17:25:10 10° N 17:31:29 90° ENE 17:37:40 10° S
SPOT 3 Rocket 3.5 17:28:08 10° SSE 17:33:18 73° ENE 17:38:28 10° N
Genesis I 3.1 17:31:30 10° NNW 17:35:25 67° NE 17:39:17 10° SE
Cosmos 375 4.3 17:32:05 10° NNW 17:36:34 75° NE 17:40:23 10° SE
CZ-3B DEB 2.3 17:33:16 10° WSW 17:36:46 68° NW 17:45:33 11° NE
BREEZE M DEB (TANK) 3.8 17:26:30 10° SW 17:37:14 50° SSE 17:40:11 15° ENE
BREEZE-M DEB (TANK) 4.5 17:30:33 10° W 17:38:23 34° NNW 17:41:59 13° NE
SJ-7 4.4 17:34:23 10° SSE 17:38:35 68° ENE 17:42:48 10° N
COSMOS 2487 2.7 17:35:41 10° N 17:39:10 47° ENE 17:42:38 10° SE
USA 32 4.4 17:35:15 10° SSW 17:40:26 68° W 17:45:39 10° N
Cosmos 1833 Rocket 3.2 17:35:40 10° N 17:40:53 37° ENE 17:46:02 10° SE
CZ-3A R/B 4.0 17:39:44 10° W 17:44:46 53° NNW 18:06:15 14° ENE
Cosmos 2082 Rocket 2.4 17:40:24 10° NNW 17:45:52 47° ENE 17:51:19 10° SE
Abrixas 2.7 17:44:31 10° NW 17:47:23 46° NNE 17:49:02 21° E
CZ-4 R/B 4.3 17:48:36 10° SSE 17:52:43 77° ENE 17:56:54 10° N
Cosmos 1743 3.3 17:49:23 10° N 17:52:57 34° ENE 17:56:29 10° SE
Timation 2 Rocket 4.2 17:46:47 10° NNW 17:53:35 64° ENE 18:00:25 10° SE
Cosmos 1500 3.1 17:51:26 10° N 17:55:17 81° E 17:59:09 10° S
COSMO-SKYMED 1 3.0 17:51:41 10° NNE 17:55:48 41° E 17:59:55 10° S
Cosmos 1821 Rocket 4.4 17:50:41 10° N 17:56:19 38° ENE 18:01:56 10° SE
BREEZE-M DEB (TANK) 3.4 17:57:08 10° WNW 17:58:51 20° N 17:59:30 18° NNE
IDEFIX/ARIANE 42P 3.0 17:55:11 10° S 18:00:21 66° WSW 18:05:31 10° NNW
Meteor 1-28 Rocket 4.2 18:01:05 25° E 18:01:35 26° E 18:04:46 10° SSE
Cosmos 1975 3.3 17:58:36 10° NNW 18:02:38 65° W 18:06:37 10° S
Cosmos 1484 Rocket 2.7 17:59:06 10° SSE 18:02:46 55° ENE 18:06:25 10° N
CZ-4 R/B 3.1 18:01:42 10° SSW 18:05:35 37° W 18:09:27 10° NNW
ASTRO F (AKARI) 4.2 18:03:22 12° N 18:06:14 82° WNW 18:09:23 10° SSW
MSX 3.8 18:00:58 10° SSE 18:06:43 88° WSW 18:12:30 10° NNW
Thor Agena Rocket 4.2 18:02:26 10° N 18:07:34 58° WNW 18:12:43 10° SSW
NOSS 2-1 (D) 3.4 18:04:01 10° SSW 18:07:45 58° ESE 18:09:43 28° NE
NOSS 2-1 (C) 3.4 18:04:41 10° SSW 18:08:26 57° ESE 18:10:22 28° NE
Cosmos 1025 Rocket 3.5 18:07:57 10° SSE 18:12:02 39° E 18:13:51 26° NE
Cosmos 921 Rocket 2.9 18:08:54 10° S 18:13:08 75° ESE 18:16:16 18° NNE
Meteor 1-13 Rocket 4.2 18:08:43 10° S 18:14:23 78° E 18:20:13 10° NNE
SMAP 4.4 18:11:26 10° S 18:15:50 42° W 18:20:16 10° NNW
ISS -1.0 18:15:43 10° NW 18:17:39 14° N 18:17:57 14° N
SL-8 R/B 4.3 18:15:40 10° W 18:20:15 45° NNW 18:22:14 29° NE
YAOGAN 1 4.1 18:16:31 10° SSW 18:20:32 38° W 18:24:37 10° NNW
Nadezhda 3 Rocket 4.0 18:15:58 10° S 18:22:11 86° W 18:28:30 10° N
Meteor 2-21 Rocket 4.4 18:16:52 10° N 18:23:06 89° WSW 18:29:14 10° S
Meteor 2-9 Rocket 4.3 18:18:28 10° N 18:23:42 47° ENE 18:28:49 10° SSE
Meteor 2-16 Rocket 4.3 18:18:49 10° N 18:24:55 78° E 18:31:00 10° SSE
Meteor 2-4 Rocket 3.6 18:20:15 10° S 18:25:28 55° E 18:29:02 20° NNE
Cosmos 2369 Rocket 4.2 18:22:28 10° SE 18:22:49 11° SE 18:22:49 11° SE
SKYMED 3 4.5 18:21:59 13° NNE 18:25:54 90° NNW 18:30:15 10° SSW
NOSS 2-1 (E) 3.2 18:23:13 10° SSW 18:27:04 83° ESE 18:28:29 41° NE
DMSP B5D1-3 4.4 18:22:50 14° NNE 18:27:19 68° ESE 18:32:25 10° S
CZ-3A R/B 4.5 18:21:54 10° W 18:33:42 32° NNW 18:36:54 19° NNE
USA 234 3.9 18:37:48 22° NNE 18:41:49 48° NNW 18:48:01 10° WSW
Cosmos 1727 Rocket 4.4 18:38:03 10° SSE 18:43:15 39° E 18:43:15 39° E
SKYMED 2 4.1 18:40:12 13° N 18:43:54 57° WNW 18:48:09 10° SSW
Tiangong 1 2.5 18:45:03 10° W 18:47:00 36° W 18:47:00 36° W
Delta 2 Rocket 4.2 18:45:50 10° WSW 18:49:21 36° S 18:49:27 36° S
NOAA 12 3.9 18:45:13 10° SSE 18:50:30 85° ENE 18:55:47 10° NNW
FALCON 9 R/B 3.6 18:34:21 10° WSW 18:56:53 59° S 19:00:04 36° ESE
Cosmos 2056 Rocket 3.4 18:51:38 10° SSW 18:57:01 87° ESE 18:58:18 54° NNE
Cosmos 407 Rocket 4.0 18:53:31 10° NNW 18:57:09 43° N 18:57:09 43° N
NOSS 3-4 (A) 3.7 18:52:09 10° NNW 18:59:13 81° NE 19:03:39 27° SE
NOSS 3-4 (C) 3.7 18:52:15 10° NNW 18:59:19 81° NE 19:03:37 28° SE
Cosmos 1892 Rocket 4.4 18:55:49 10° S 18:58:33 38° S 18:58:33 38° S
Cosmos 2278 Rocket 4.4 19:00:58 10° W 19:05:01 20° NW 19:09:05 10° N
METEOR-M 4.2 19:04:34 10° S 19:09:54 77° WSW 19:15:16 10° NNW
Cosmos 1624 Rocket 4.2 19:05:07 10° SSW 19:10:16 66° WNW 19:11:26 50° NNW
Cosmos 1934 Rocket 4.2 19:04:40 10° NNW 19:10:51 70° W 19:17:06 10° S
GEOS 3 Rocket 3.8 19:23:58 66° SW 19:24:01 66° SW 19:29:08 10° NW
Cosmos 1833 Rocket 4.3 19:19:45 10° NW 19:24:41 32° WSW 19:29:36 10° SSW
Cosmos 2082 Rocket 4.3 19:25:06 10° NW 19:29:38 25° WSW 19:34:10 10° SSW
Cosmos 2369 Rocket 4.4 20:03:26 10° SSW 20:04:41 17° SSW 20:04:41 17° SSW
CZ-3B DEB 4.4 20:07:08 10° WNW 20:13:40 39° N 20:13:40 39° N
